Weather in Akcakale

Turkey     36°42′49″N   38°56′54″E
temp.,
°C
wind,
m/s
gust,
m/s
humid.,
%
clouds,
%
prec.,
mm/h
press.,
hPa
HPBL,
m
14 may, fri
fri1400:00+23nw34280 0.0 101064
03:00+22n33270 0.0 101032
06:00+21nw11300 0.0 101111
09:00+29w33170 0.0 1011493
12:00+34w44120 0.0 10101561
15:00+36w56100 0.0 10083367
18:00+34w56120 0.0 10081436
21:00+26w512175 0.0 1009223
15 may, sat
sat1500:00+22wnw33270 0.0 101029
03:00+21w33320 0.0 100921
06:00+20wsw22390 0.0 101013
09:00+27wsw33250 0.0 1010513
12:00+33wsw33120 0.0 10081529
15:00+35sw45100 0.0 10062606
18:00+34wsw56130 0.0 10051280
21:00+27wsw612270 0.0 1006291
16 may, sun
sun1600:00+22wsw23330 0.0 100637
03:00+20sw33423 0.0 100637
06:00+19sw35529 0.0 100788
09:00+25wsw3428100 0.0 1007529
12:00+32sw561581 0.0 10061437
15:00+34sw78110 0.0 10042873
18:00+32sw67121 0.0 10042634
21:00+25wnw4926100 0.0 1006194
17 may, mon
mon1700:00+21nw2236100 0.0 100614
03:00+21sw3332100 0.0 100632
06:00+21wnw2336100 0.0 100670
09:00+26w342398 0.0 1007719
12:00+31w56130 0.0 10062203
15:00+32wsw89140 0.0 10043217
18:00+30w89180 0.0 10042856
21:00+24wsw712300 0.0 1007366
18 may, tue
tue1800:00+21w510440 0.0 1007229
03:00+20wnw49470 0.0 1007201
06:00+20wnw37420 0.0 1008128
09:00+28nw66234 0.0 10091357
12:00+32nw78155 0.0 10082841
15:00+34nnw810100 0.0 10073089
18:00+33nw67110 0.0 10062836
21:00+26nnw34170 0.0 100835